Date String (YYYY-MM-DD hh:mm:ss) UTC,Instrument flags,absolute air pressure of the measurement (hPa),sample flow rate (lpm),inlet stack bypass flow (lpm),air temperature of the measurement (°C),ambient temperature measured by the external sensor (°C),aerosol sample conditioner tube jacket temperature (°C),OPC LED temperature (°C),internal box temperature (°C),relative humidity of the measurement (%),span deviation,mass concentration of particles derived from Lorenz-Mie calculation of OPC scattering (μg/m³),mass concentration of particles derived from Lorenz-Mie calculation of OPC scattering (μg/m³),mass concentration of particles derived from Lorenz-Mie calculation of OPC scattering (μg/m³)
DateTimeUTC,F1_M11,P_M11,Q1_M11,Q2_M11,T1_M11,T2_M11,T3_M11,T4_M11,T5_M11,U1_M11,ZSPAN_M11,X0_M11,X2_M11,X1_M11
2024-03-28 08:00:00,SystemResetWarning,0826.8,5.00,000.00,018.3,017.5,000.0,026.9,020.0,12.2,0000.0,0002.73,0001.60,0001.14
2024-03-28 08:01:00,SystemResetWarning,0826.7,5.00,000.00,018.3,017.5,000.0,026.9,020.0,12.2,0000.0,0002.77,0001.60,0001.15
2024-03-28 08:02:00,SystemResetWarning,0826.6,5.01,000.00,018.3,017.5,000.0,026.9,020.0,12.2,0000.0,0002.74,0001.58,0001.16
2024-03-28 08:03:00,SystemResetWarning,0826.6,5.00,000.00,018.3,017.6,000.0,026.9,020.0,12.1,0000.0,0002.73,0001.58,0001.18
2024-03-28 08:04:00,SystemResetWarning,0826.6,4.99,000.00,018.3,017.6,000.0,026.9,020.0,12.1,0000.0,0002.87,0001.63,0001.19
2024-03-28 08:05:00,SystemResetWarning,0826.6,5.00,000.00,018.3,017.6,000.0,026.9,020.0,12.1,0000.0,0002.95,0001.65,0001.20
2024-03-28 08:06:00,SystemResetWarning,0826.6,5.00,000.00,018.3,017.6,000.0,026.9,020.0,12.2,0000.0,0002.88,0001.62,0001.20
2024-03-28 08:07:00,SystemResetWarning,0826.6,5.01,000.00,018.3,017.6,000.0,026.9,020.0,12.2,0000.0,0002.93,0001.65,0001.21
2024-03-28 08:08:00,SystemResetWarning,0826.6,5.00,000.00,018.3,017.5,000.0,026.9,020.0,12.2,0000.0,0002.90,0001.66,0001.22
2024-03-28 08:09:00,SystemResetWarning,0826.6,4.99,000.00,018.3,017.5,000.0,026.9,020.0,12.1,0000.0,0002.67,0001.62,0001.22
2024-03-28 08:10:00,SystemResetWarning,0826.6,5.00,000.00,018.3,017.5,000.0,026.9,020.0,12.2,0000.0,0002.52,0001.61,0001.23
2024-03-28 08:11:00,SystemResetWarning,0826.6,5.01,000.00,018.3,017.5,000.0,026.9,020.0,12.2,0000.0,0002.56,0001.61,0001.23
2024-03-28 08:12:00,SystemResetWarning,0826.4,5.01,000.00,018.3,017.5,000.0,026.9,020.0,12.2,0000.0,0002.43,0001.60,0001.24
2024-03-28 08:13:00,SystemResetWarning,0826.4,4.99,000.00,018.3,017.5,000.0,026.9,020.0,12.1,0000.0,0002.37,0001.61,0001.25
2024-03-28 08:14:00,SystemResetWarning,0826.4,5.00,000.00,018.3,017.5,000.0,026.9,020.0,12.1,0000.0,0002.54,0001.66,0001.26
2024-03-28 08:15:00,SystemResetWarning,0826.4,5.00,000.00,018.3,017.5,000.0,026.9,020.0,12.2,0000.0,0002.60,0001.69,0001.28
2024-03-28 08:16:00,SystemResetWarning,0826.4,5.00,000.00,018.3,017.5,000.0,026.9,020.0,12.3,0000.0,0002.53,0001.68,0001.29
2024-03-28 08:17:00,SystemResetWarning,0826.4,5.00,000.00,018.3,017.5,000.0,026.9,020.0,12.6,0000.0,0002.54,0001.69,0001.30
2024-03-28 08:18:00,SystemResetWarning,0826.5,5.00,000.00,018.3,017.6,000.0,026.9,020.0,12.3,0000.0,0002.54,0001.68,0001.30
2024-03-28 08:19:00,SystemResetWarning,0826.4,5.01,000.00,018.3,017.5,000.0,026.9,020.0,12.3,0000.0,0002.61,0001.71,0001.31
2024-03-28 08:20:00,SystemResetWarning,0826.5,5.01,000.00,018.2,017.6,000.0,026.9,020.0,12.3,0000.0,0002.62,0001.73,0001.32
2024-03-28 08:21:00,SystemResetWarning,0826.5,5.00,000.00,018.3,017.6,000.0,026.9,020.0,12.3,0000.0,0002.73,0001.75,0001.34
2024-03-28 08:22:00,SystemResetWarning,0826.4,5.00,000.00,018.3,017.6,000.0,026.9,020.0,12.4,0000.0,0002.91,0001.81,0001.36
2024-03-28 08:23:00,SystemResetWarning,0826.4,5.01,000.00,018.3,017.6,000.0,026.9,020.0,12.4,0000.0,0002.95,0001.82,0001.36
2024-03-28 08:24:00,SystemResetWarning,0826.4,5.00,000.00,018.3,017.6,000.0,026.9,020.0,12.5,0000.0,0003.38,0001.83,0001.36
2024-03-28 08:25:00,SystemResetWarning,0826.4,5.00,000.00,018.3,017.6,000.0,026.9,020.0,12.4,0000.0,0004.26,0001.84,0001.35
2024-03-28 08:26:00,SystemResetWarning,0826.4,5.00,000.00,018.3,017.6,000.0,026.9,020.0,12.6,0000.0,0004.30,0001.88,0001.35
2024-03-28 08:27:00,SystemResetWarning,0826.4,5.00,000.00,018.3,017.6,000.0,026.9,020.0,12.6,0000.0,0004.46,0001.92,0001.35
2024-03-28 08:28:00,SystemResetWarning,0826.4,5.00,000.00,018.3,017.6,000.0,026.9,020.0,12.6,0000.0,0005.16,0001.97,0001.36
2024-03-28 08:29:00,SystemResetWarning,0826.4,5.00,000.00,018.3,017.6,000.0,026.9,020.0,12.6,0000.0,0005.29,0002.01,0001.37
2024-03-28 08:30:00,SystemResetWarning,0826.4,4.99,000.00,018.3,017.6,000.0,026.9,020.0,12.3,0000.0,0005.34,0002.03,0001.37
2024-03-28 08:31:00,SystemResetWarning,0826.4,4.99,000.00,018.3,017.6,000.0,026.9,020.0,12.3,0000.0,0005.47,0002.05,0001.38
2024-03-28 08:32:00,SystemResetWarning,0826.4,4.99,000.00,018.3,017.6,000.0,026.9,020.0,12.5,0000.0,0005.41,0002.02,0001.38
2024-03-28 08:33:00,SystemResetWarning,0826.4,5.00,000.00,018.3,017.5,000.0,026.9,020.0,12.5,0000.0,0005.30,0001.99,0001.37
2024-03-28 08:34:00,SystemResetWarning,0826.4,5.00,000.00,018.3,017.5,000.0,026.9,020.0,12.5,0000.0,0005.28,0002.00,0001.37
2024-03-28 08:35:00,SystemResetWarning,0826.4,5.01,000.00,018.3,017.6,000.0,026.9,020.0,12.6,0000.0,0005.50,0002.06,0001.39
2024-03-28 08:36:00,SystemResetWarning,0826.4,5.00,000.00,018.3,017.6,000.0,026.9,020.0,12.8,0000.0,0004.46,0002.05,0001.39
2024-03-28 08:37:00,SystemResetWarning,0826.4,5.01,000.00,018.3,017.6,000.0,026.9,020.0,13.0,0000.0,0004.02,0001.99,0001.40
2024-03-28 08:38:00,SystemResetWarning,0826.4,4.99,000.00,018.3,017.6,000.0,026.9,020.0,13.3,0000.0,0003.90,0001.95,0001.41
2024-03-28 08:39:00,SystemResetWarning,0826.4,5.00,000.00,018.3,017.5,000.0,026.9,020.0,13.2,0000.0,0003.64,0001.94,0001.42
2024-03-28 08:40:00,SystemResetWarning,0826.4,4.99,000.00,018.3,017.5,000.0,026.9,020.0,13.5,0000.0,0003.19,0001.92,0001.40
2024-03-28 08:41:00,SystemResetWarning,0826.4,4.99,000.00,018.3,017.5,000.0,026.9,020.0,13.4,0000.0,0003.25,0001.90,0001.41
2024-03-28 08:42:00,SystemResetWarning,0826.4,5.01,000.00,018.3,017.5,000.0,026.9,020.0,13.3,0000.0,0003.13,0001.88,0001.40
2024-03-28 08:43:00,SystemResetWarning,0826.4,5.01,000.00,018.3,017.5,000.0,026.9,020.0,13.3,0000.0,0003.21,0001.93,0001.40
2024-03-28 08:44:00,SystemResetWarning,0826.4,5.00,000.00,018.3,017.5,000.0,026.9,020.0,13.4,0000.0,0003.29,0001.97,0001.41
2024-03-28 08:45:00,SystemResetWarning,0826.4,5.00,000.00,018.3,017.5,000.0,026.9,020.0,13.3,0000.0,0003.90,0002.01,0001.42
2024-03-28 08:46:00,SystemResetWarning,0826.4,5.00,000.00,018.3,017.5,000.0,026.9,020.0,13.4,0000.0,0004.31,0001.99,0001.42
2024-03-28 08:47:00,SystemResetWarning,0826.5,5.00,000.00,018.3,017.5,000.0,026.9,020.0,13.3,0000.0,0004.40,0002.01,0001.42
2024-03-28 08:48:00,SystemResetWarning,0826.5,4.99,000.00,018.3,017.5,000.0,026.9,020.0,13.5,0000.0,0004.58,0002.05,0001.42
2024-03-28 08:49:00,SystemResetWarning,0826.5,4.99,000.00,018.3,017.5,000.0,026.9,020.0,13.4,0000.0,0004.58,0002.07,0001.42
2024-03-28 08:50:00,SystemResetWarning,0826.4,5.00,000.00,018.3,017.5,000.0,026.9,020.0,13.1,0000.0,0004.57,0002.07,0001.41
2024-03-28 08:51:00,SystemResetWarning,0826.4,5.01,000.00,018.3,017.5,000.0,026.9,020.0,13.0,0000.0,0004.48,0002.05,0001.41
2024-03-28 08:52:00,SystemResetWarning,0826.3,5.01,000.00,018.3,017.5,000.0,026.9,020.0,12.8,0000.0,0004.54,0002.06,0001.41
2024-03-28 08:53:00,SystemResetWarning,0826.4,5.01,000.00,018.3,017.7,000.0,027.0,020.2,12.6,0000.0,0004.62,0002.09,0001.42
2024-03-28 08:54:00,SystemResetWarning,0826.6,5.00,000.00,018.5,018.6,000.0,027.1,020.7,12.6,0000.0,0004.68,0002.12,0001.42
2024-03-28 08:55:00,SystemResetWarning,0826.4,5.00,000.00,018.7,019.2,000.0,027.1,021.0,12.3,0000.0,0004.63,0002.10,0001.41
2024-03-28 08:56:00,SystemResetWarning,0826.5,4.99,000.00,018.8,019.0,000.0,027.0,020.9,12.0,0000.0,0004.34,0002.07,0001.41
2024-03-28 08:57:00,SystemResetWarning,0826.4,5.00,000.00,018.8,018.8,000.0,027.0,020.7,12.0,0000.0,0003.41,0002.05,0001.40
2024-03-28 08:58:00,SystemResetWarning,0826.4,5.00,000.00,018.8,018.6,000.0,027.0,020.6,12.1,0000.0,0003.38,0002.04,0001.41
2024-03-28 08:59:00,SystemResetWarning,0826.4,5.00,000.00,018.7,018.5,000.0,027.0,020.5,12.0,0000.0,0003.21,0002.01,0001.40
